OBJECT U

Last updated on Mon Jul 04 2022 00:02:08 GMT+0000 (Coordinated Universal Time)

1 51842U 22019U 22184.54541407 .00004452 00000+0 17567-3 0 9994 2 51842 97.5588 262.2217 0070186 131.3213 352.1231 15.23793286 19230

Satellite not in orbit

OBJECT U